Lapse_Rate
7.1 6.5 6.5 6.5 6.5 6.5 6.5 6.5 6.5 6.5 6.5 6.5 6.5 6.5 6.5 6.9 7.1 7.0 7.2 7.4 7.5 7.7 8.3 8.6 8.1 6.8 5.8 4.6 4.4 5.6 5.9 7.3 6.8 7.6 7.3 7.5 7.8 7.9 8.1 8.5 8.8 8.4 6.8 4.8
6.5 6.5 6.5 6.5 6.5 6.5 6.5 6.5 6.5 6.5 6.5 6.5 6.5 6.5 6.5 6.5 6.7 7.0 7.1 7.2 7.4 7.8 8.1 8.3 6.7 3.9 2.6 2.4 2.2 2.7 3.7 6.4 8.0 6.8 8.0 9.0 9.3 9.3 9.4 9.2 8.8 8.7 7.7 6.1
6.5 6.5 6.5 6.5 6.5 6.5 6.5 6.5 6.5 6.5 6.5 6.5 6.5 6.5 6.5 6.5 6.8 7.0 7.3 7.6 7.8 7.8 7.9 8.2 7.6 4.9 2.2 1.3 1.7 3.5 4.2 4.7 6.5 7.2 8.4 8.4 7.2 7.8 8.6 9.0 8.8 8.3 7.7 7.1
6.5 6.6 6.5 6.5 6.5 6.5 6.5 6.5 6.5 6.5 6.5 6.5 6.5 6.5 6.5 6.5 6.5 6.5 6.9 7.3 7.6 7.8 8.1 8.2 8.0 5.6 3.4 3.2 3.1 3.3 3.1 3.7 4.2 5.5 6.8 7.2 8.9 8.4 9.0 9.2 9.1 8.5 7.4 6.8
6.5 6.5 6.5 6.5 6.5 6.5 6.5 6.5 6.5 6.5 6.5 6.5 6.5 6.5 6.5 6.5 6.5 6.5 6.7 7.2 7.6 7.9 8.0 8.0 7.8 5.9 4.7 3.5 3.0 3.8 2.9 1.8 2.2 4.2 5.6 6.8 7.3 8.0 9.0 9.0 7.6 7.9 7.1 5.5
6.5 7.0 6.5 6.5 6.5 6.5 6.5 6.5 6.5 6.5 6.5 6.5 6.5 6.5 6.5 6.5 6.5 6.5 6.7 7.3 7.6 7.9 8.0 8.2 8.1 7.8 6.5 5.2 4.6 4.4 4.2 3.6 3.2 3.3 3.9 5.1 6.1 6.4 7.4 8.8 7.6 7.7 6.2 5.7
6.5 6.5 6.5 6.7 6.5 6.5 6.5 6.5 6.5 6.5 6.5 6.5 6.5 6.5 6.5 6.5 6.5 6.5 6.6 7.2 7.6 7.9 8.0 8.2 8.3 8.4 8.6 7.9 6.6 4.5 3.4 2.7 3.5 3.9 3.9 4.0 4.2 5.4 6.5 6.9 7.2 8.5 8.5 7.7
6.5 6.5 6.5 6.5 6.5 6.5 6.5 6.5 6.5 6.5 6.5 6.5 6.5 6.5 6.5 6.5 6.9 7.1 7.3 7.5 7.7 7.8 8.1 8.1 8.3 8.5 8.5 7.4 5.5 5.1 3.9 3.6 3.3 3.3 3.9 4.4 4.1 4.0 4.9 5.9 6.1 6.3 7.7 8.5
6.5 6.5 6.5 6.5 6.5 6.5 6.5 6.5 6.5 6.5 6.5 6.5 6.5 6.5 6.5 6.5 6.5 6.8 7.0 7.3 7.4 7.7 8.0 8.1 8.4 8.5 8.5 8.5 8.4 7.5 5.5 4.6 4.2 4.2 3.9 3.9 3.6 3.7 4.2 4.2 4.8 5.7 6.2 6.9
6.5 6.5 6.5 6.5 6.6 6.6 6.5 6.5 6.5 6.5 6.5 6.5 6.5 6.5 6.5 6.5 6.5 6.5 6.6 7.0 7.4 7.7 7.9 8.1 8.3 8.4 8.4 8.1 7.9 6.7 6.4 5.3 5.0 4.5 4.3 4.6 3.9 3.8 3.9 3.6 3.2 3.6 3.9 4.8
6.5 6.5 6.5 6.5 6.5 6.5 6.5 6.5 6.5 6.5 6.5 6.5 6.5 6.5 6.5 6.5 6.5 6.5 6.6 7.2 7.4 7.6 7.8 8.1 8.3 8.6 8.5 7.8 7.0 6.2 5.7 5.5 5.2 4.9 4.7 4.7 4.6 4.3 4.0 3.4 3.3 3.1 3.0 3.4
6.5 6.5 6.5 6.5 6.5 6.5 6.5 6.5 6.5 6.5 6.5 6.5 6.5 6.5 6.5 6.5 6.5 6.8 6.9 7.3 7.5 7.8 7.9 8.2 8.3 8.4 8.0 7.0 6.3 6.3 6.0 5.5 5.3 5.4 5.2 5.0 4.8 4.5 4.1 3.8 3.3 2.4 2.5 2.9
6.5 6.5 6.5 6.5 6.5 6.5 6.5 6.5 6.5 6.5 6.5 6.5 6.5 6.5 6.5 6.6 6.6 6.9 6.9 7.3 7.6 7.8 7.9 8.1 8.3 8.4 8.3 8.1 8.1 7.7 6.7 5.7 4.9 4.9 5.2 5.4 4.9 4.0 3.3 3.2 3.2 2.9 2.5 2.3
6.7 6.5 6.5 6.5 6.5 6.5 6.5 6.5 6.5 6.5 6.5 6.5 6.5 6.5 6.5 6.5 6.5 6.7 7.1 7.3 7.6 7.7 7.9 8.1 8.2 8.3 8.5 8.1 8.0 7.9 7.4 7.2 5.8 5.1 4.9 4.7 4.3 4.6 4.4 3.7 3.1 2.9 2.9 3.0
6.5 6.5 6.5 6.5 6.5 6.5 6.5 6.5 6.5 6.5 6.5 6.5 6.5 6.5 6.5 6.5 6.5 6.8 7.2 7.4 7.5 7.6 7.8 8.0 8.1 8.3 8.5 8.5 8.1 7.8 7.1 6.7 6.0 5.1 4.5 4.5 4.2 4.1 3.1 2.2 2.5 3.1 2.8 2.9
6.5 6.5 6.5 6.5 6.5 6.5 6.5 6.5 6.5 6.5 6.5 6.5 6.5 6.5 6.5 6.9 7.1 6.9 7.1 7.3 7.3 7.5 7.8 8.0 8.2 8.4 8.5 8.6 8.7 8.6 7.9 7.3 6.2 4.7 3.6 3.4 2.7 2.4 2.0 2.0 1.7 2.4 3.0 3.2
6.5 6.5 6.5 6.5 6.5 6.5 6.5 6.5 6.5 6.5 6.5 6.5 6.5 6.5 6.5 6.5 6.6 6.8 7.1 7.3 7.4 7.6 7.8 8.0 8.2 8.4 8.5 8.7 8.8 8.7 8.9 8.0 6.1 4.8 3.9 3.4 3.3 3.0 2.6 2.0 1.7 1.7 2.4 2.8
6.5 6.5 6.5 6.5 6.5 6.5 6.5 6.5 6.5 6.5 6.5 6.5 6.5 6.5 6.6 6.7 7.2 7.5 7.7 7.6 7.6 7.8 8.0 8.2 8.4 8.5 8.6 8.8 8.9 8.7 7.4 6.9 6.3 5.5 4.9 4.3 4.4 3.8 3.2 2.8 2.4 2.3 2.5 2.1
6.6 6.5 6.5 6.5 6.5 6.5 6.5 6.5 6.5 6.5 6.5 6.5 6.5 6.5 6.7 7.2 7.3 7.2 7.9 8.0 8.0 8.1 8.3 8.5 8.7 8.6 8.8 8.6 8.8 7.7 6.8 7.1 7.6 7.5 7.6 7.8 7.4 6.0 4.1 2.1 1.9 2.4 2.6 2.1
6.5 6.5 6.5 6.5 6.5 6.5 6.5 6.5 6.9 6.6 6.5 6.5 6.3 6.5 6.6 6.9 6.5 6.5 7.8 8.1 8.1 8.4 8.5 8.4 8.6 8.1 7.9 8.5 7.6 6.7 6.8 6.9 7.4 8.1 8.0 7.8 7.8 7.1 6.2 5.3 3.6 2.8 2.1 2.2
6.5 6.5 6.5 6.5 6.5 6.5 6.5 6.6 7.0 6.5 6.5 6.6 6.8 6.9 6.8 6.5 7.0 7.7 8.1 8.1 8.4 8.2 8.3 8.6 7.9 7.3 7.4 7.7 6.6 5.6 6.0 6.8 7.6 7.3 7.4 7.5 7.9 7.8 7.8 7.7 7.0 6.5 5.9 5.6
6.5 6.5 6.5 6.5 6.5 6.5 6.8 6.7 6.5 6.6 7.0 7.1 7.2 7.4 7.2 7.5 7.6 7.8 8.0 8.1 8.2 8.2 8.2 7.7 6.6 6.1 6.0 6.0 4.8 4.1 4.0 5.9 5.7 5.6 5.9 6.8 7.3 8.0 8.6 8.4 8.1 8.3 8.4 8.1
6.5 6.5 6.5 6.5 6.5 6.6 7.2 6.9 7.4 7.5 6.7 7.1 7.3 7.5 7.7 7.5 7.6 7.8 7.9 8.1 8.1 7.5 6.4 5.2 4.3 3.0 3.3 3.4 3.7 3.0 3.3 3.6 3.1 2.5 2.5 4.0 5.4 6.5 7.8 8.5 8.6 8.7 8.7 8.5
6.5 6.8 6.5 6.5 6.5 6.6 7.1 7.5 7.7 7.7 7.5 7.7 7.8 7.6 7.8 7.6 7.7 7.5 7.3 7.2 6.7 5.6 4.7 4.0 2.7 2.1 1.4 1.9 2.2 3.1 3.4 3.6 3.2 3.1 3.6 4.8 6.2 6.9 7.7 8.9 9.5 9.2 8.9 8.7
6.6 6.6 6.5 6.5 6.5 6.9 7.3 7.6 7.6 7.6 7.7 7.5 7.7 7.5 7.2 7.4 6.4 6.9 6.4 5.2 5.3 4.8 3.9 2.9 1.8 1.1 0.8 1.6 1.6 2.3 3.1 3.3 3.6 4.7 6.0 7.1 7.8 8.6 8.8 9.1 9.2 9.2 9.2 9.2
6.8 6.5 6.5 6.5 6.8 6.8 6.9 7.5 7.7 7.4 7.5 7.5 7.1 5.5 3.8 3.9 4.7 4.8 4.3 4.5 4.0 3.3 2.3 1.6 1.2 1.0 0.8 1.3 1.4 2.0 3.0 3.6 4.5 6.0 7.2 8.0 8.3 8.7 9.0 9.1 9.0 9.5 9.7 9.7
Wind_Speed
8 8 10 15 16 20 20 21 23 21 20 22 21 21 20 20 23 23 19 15 8 5 14 14 16 17 17 16 15 12 7 5 5 7 7 7 8 7 8 8 12 14 15 18
4 12 15 15 13 13 18 21 21 20 17 13 17 21 25 22 19 14 12 10 4 11 14 15 17 19 20 19 18 15 11 7 2 5 4 5 5 7 7 6 8 13 14 15
17 15 5 9 12 18 18 19 22 22 18 17 13 15 12 10 19 10 7 12 16 14 14 14 16 17 16 17 18 16 14 10 6 3 3 3 4 3 5 5 6 6 12 13
11 8 6 11 15 14 15 12 7 12 9 10 7 11 11 17 12 9 13 14 14 14 14 13 15 17 18 17 14 15 15 14 11 7 3 4 4 5 4 5 4 5 9 11
0 5 4 8 9 4 8 2 7 8 11 16 14 9 5 15 8 13 12 12 12 13 13 15 17 17 16 15 15 15 16 16 15 13 8 5 4 5 5 2 2 5 6 10
17 2 4 10 3 7 6 7 14 13 8 8 6 6 4 4 5 12 10 10 11 11 12 13 12 12 12 12 12 13 15 17 16 14 12 10 9 7 5 5 4 3 5 6
5 7 5 4 7 5 6 8 7 8 8 13 5 6 9 6 3 5 10 8 9 10 10 11 11 10 10 12 11 13 16 18 17 16 14 12 10 10 9 7 5 5 5 4
13 17 7 10 6 12 10 9 7 10 14 16 8 12 10 5 12 12 10 10 9 8 8 8 9 9 10 12 15 15 15 15 15 15 15 14 14 8 7 8 8 6 6 4
10 9 5 4 4 2 5 7 8 6 11 8 14 23 18 12 12 9 10 9 8 7 6 8 10 12 12 12 13 13 14 14 14 13 11 11 11 11 10 11 9 7 8 7
1 10 3 1 2 8 6 5 7 4 5 15 12 18 13 7 12 10 7 7 6 8 10 10 11 10 10 10 11 14 14 14 13 12 11 10 10 11 10 9 10 9 8 9
4 3 9 6 7 12 10 10 11 12 11 13 16 13 8 9 8 7 7 7 7 8 8 8 7 8 9 10 12 13 13 13 12 11 10 10 9 10 9 9 9 10 10 9
10 5 10 23 21 19 14 15 16 12 9 11 13 12 10 8 7 5 4 5 5 5 6 6 5 7 9 10 11 11 10 10 10 10 9 9 9 9 9 9 10 10 10 10
3 2 5 8 10 2 4 6 12 14 12 17 14 12 7 4 3 2 4 6 4 4 4 5 6 7 8 8 8 8 8 8 8 9 8 8 8 9 9 10 10 10 11 10
2 5 11 13 17 19 19 18 15 11 9 17 16 14 15 14 9 7 11 6 5 4 4 4 6 8 7 7 7 8 8 6 7 8 9 8 8 8 9 9 10 9 9 9
4 10 15 18 21 19 18 19 24 24 23 23 24 23 24 23 17 7 2 1 5 7 6 4 5 7 9 9 10 9 10 9 9 9 8 9 8 9 9 8 9 10 9 9
7 10 11 16 19 20 21 24 24 22 22 24 25 28 23 9 2 3 2 4 7 9 8 5 5 7 8 8 9 9 10 9 8 10 10 9 8 8 8 8 9 10 10 11
11 8 8 18 16 18 16 24 23 26 26 25 22 12 7 5 3 5 6 7 9 10 10 8 8 8 8 8 8 9 10 8 6 8 9 9 8 8 8 9 11 11 11 11
12 13 9 15 13 20 14 14 12 16 14 10 5 1 2 2 7 9 10 11 11 12 12 11 10 11 10 10 9 9 6 7 8 10 10 9 10 11 10 10 11 12 11 12
17 16 10 11 15 19 25 21 20 17 17 11 7 5 2 9 12 14 10 7 10 11 10 10 11 11 11 10 9 7 7 9 10 11 12 12 11 10 11 11 13 14 12 13
7 14 12 10 14 17 15 5 2 2 13 6 5 3 7 7 9 12 12 11 11 11 10 10 11 8 10 10 9 8 10 10 12 12 13 13 12 12 13 14 14 14 14 15
3 5 14 14 16 12 8 4 2 7 9 10 5 6 9 10 11 13 11 13 11 9 11 10 8 8 10 9 10 11 12 13 12 12 13 14 14 15 15 16 15 15 16 16
8 7 7 5 6 12 4 5 5 5 2 5 10 13 12 14 12 12 13 11 10 11 10 9 9 10 11 12 11 13 14 14 14 14 15 16 15 13 13 17 17 17 17 17
7 11 7 7 8 5 9 9 11 12 13 15 18 16 12 12 12 12 12 11 10 8 8 8 8 11 13 10 9 13 15 15 16 17 17 16 17 15 15 16 17 14 15 14
15 18 12 14 16 23 19 19 18 16 17 17 15 13 11 12 10 7 6 6 6 6 7 7 8 10 13 10 11 12 14 14 15 16 16 15 15 16 15 12 12 13 13 13
12 5 13 14 20 21 19 18 19 18 16 15 12 8 10 8 6 5 5 5 6 7 8 7 9 11 13 13 13 12 13 13 14 15 15 15 13 14 14 13 12 13 14 16
16 21 13 15 19 16 18 16 15 11 14 13 10 6 4 2 4 3 4 5 6 7 8 9 10 11 13 13 14 14 12 13 14 15 13 12 13 13 13 13 13 24 29 33
Wind_Direction
194 225 226 252 249 258 277 284 285 285 297 296 298 297 298 289 281 279 282 287 296 23 66 45 38 29 24 24 14 2 336 274 229 232 228 228 231 217 223 224 221 215 204 201
192 240 254 271 281 290 278 281 282 288 296 311 291 295 292 290 278 284 296 313 58 90 57 41 32 28 25 19 16 16 11 346 274 255 248 258 245 236 234 231 229 217 214 205
254 270 314 269 259 264 272 283 291 296 309 292 297 284 292 255 289 300 354 92 72 56 49 39 35 34 29 27 20 20 20 27 22 356 302 265 283 356 279 238 242 222 228 212
264 283 248 253 255 268 274 283 296 295 302 300 15 298 291 276 263 70 102 76 74 56 44 43 38 34 31 25 23 38 38 34 33 27 22 338 289 274 259 261 263 237 224 230
143 170 184 225 237 221 264 304 284 278 269 287 277 261 273 279 268 111 93 79 66 68 57 44 35 32 29 29 25 28 35 42 38 27 18 5 327 297 299 307 318 225 234 231
268 100 257 253 263 226 346 278 265 260 265 265 296 269 290 20 0 123 115 94 75 64 63 60 52 40 35 37 37 35 44 43 36 32 28 14 347 332 322 309 291 244 231 228
279 226 192 242 260 206 228 277 295 274 255 267 232 278 264 322 168 139 126 91 71 64 58 54 54 50 40 34 35 43 37 39 32 27 27 19 9 346 329 322 299 288 269 243
288 293 187 159 240 305 282 263 264 287 284 294 288 269 248 353 116 124 125 117 96 70 56 55 52 47 44 34 32 34 42 41 33 31 21 19 16 6 346 337 324 312 301 280
304 258 348 264 273 281 285 243 286 288 277 282 264 269 273 232 154 135 118 106 88 81 55 32 34 35 27 31 35 34 37 35 31 26 24 22 18 14 5 353 339 327 317 308
83 290 263 77 273 216 235 346 265 221 254 261 262 273 271 260 171 145 116 88 62 39 37 30 24 24 24 25 23 30 33 31 23 21 21 16 17 12 8 1 2 347 331 321
26 220 278 304 236 266 258 254 242 266 249 260 268 267 22 42 89 112 77 48 31 28 24 26 24 16 18 25 27 29 21 17 14 15 11 8 11 8 6 5 2 354 344 333
282 285 264 276 286 286 295 269 275 256 251 248 263 259 3 84 86 78 45 1 358 8 9 14 14 25 21 14 17 19 15 14 5 0 0 6 5 3 5 359 354 352 347 340
58 223 281 283 279 89 212 280 279 264 264 261 273 284 89 94 127 154 265 272 252 317 359 15 16 15 18 5 2 1 2 3 358 350 350 355 0 356 356 353 349 346 342 337
75 243 247 259 276 302 297 296 292 279 272 280 264 274 270 249 233 222 215 223 259 268 300 325 349 351 352 351 348 347 347 358 345 342 343 345 348 343 348 338 334 333 332 329
245 261 263 269 274 282 287 281 275 270 266 261 277 287 288 296 303 327 358 249 253 249 255 296 318 310 317 330 327 331 330 338 338 332 332 331 330 326 323 322 325 317 316 316
266 270 290 281 277 276 276 271 267 271 272 270 272 273 279 352 39 259 281 275 292 301 272 283 287 293 290 281 294 305 313 316 331 321 315 314 313 313 308 307 310 306 308 313
265 268 264 268 281 287 270 257 263 263 263 269 275 307 358 4 332 319 310 302 301 305 292 269 286 298 312 307 293 290 296 297 298 291 295 299 301 298 303 310 311 311 306 301
254 258 256 270 282 259 263 275 289 285 285 296 308 63 107 350 322 315 300 293 301 306 301 290 289 298 309 312 310 303 294 284 281 278 281 281 287 291 296 301 301 302 302 300
234 250 264 255 252 274 290 287 285 293 291 311 209 182 5 327 313 292 285 344 318 301 306 305 298 295 306 311 318 318 302 292 288 286 289 286 284 283 285 288 294 296 297 294
244 236 237 247 259 266 285 342 348 309 276 128 111 175 303 301 286 289 322 322 301 291 297 305 313 315 310 324 329 314 304 301 298 300 296 293 287 281 279 278 282 287 286 283
214 227 231 243 255 267 271 92 142 247 295 150 180 285 287 277 273 291 299 291 287 295 302 308 315 313 318 332 335 315 309 304 306 307 301 297 292 288 285 283 281 284 283 281
233 247 228 231 259 271 89 120 224 321 203 228 269 296 289 290 282 286 284 285 293 309 327 338 326 316 320 331 333 314 308 316 318 312 302 298 297 294 291 288 287 284 281 279
240 239 256 233 245 246 193 229 254 272 273 282 297 298 290 281 272 278 287 295 316 329 337 338 328 317 315 327 325 310 311 319 315 312 307 305 302 298 293 290 288 286 282 277
252 251 247 254 249 257 267 269 269 275 276 280 281 287 284 270 280 286 290 301 310 320 327 335 325 309 305 319 315 307 311 314 309 303 302 303 300 299 294 288 287 285 283 281
246 259 240 252 257 266 263 265 266 270 273 279 285 277 263 268 259 282 295 306 306 317 321 325 314 305 304 313 309 311 308 308 304 301 300 298 294 293 294 286 284 280 276 274
241 241 246 252 259 262 266 273 276 282 281 275 274 202 191 211 263 283 283 306 314 316 320 310 304 301 302 304 305 307 307 306 302 301 299 298 298 295 291 290 287 280 284 286